Location: Newark
(35.5000°N, 109.0000°E)
Time: 04:14:55
(UTC+00:00)

N. Korean satellite - Visible Passes

Search period start: 25 September 2020 00:00
Search period end: 05 October 2020 00:00
Orbit: 455 x 503 km, 97.2° (Epoch: 24 September)

Date Brightness Start Highest point End Pass type
(mag) Time Alt. Az. Time Alt. Az. Time Alt. Az.
27 Sep 8.5 21:47:53 10° NNE 21:51:12 34° E 21:54:27 10° SSE visible
28 Sep 9.8 21:22:51 10° NE 21:25:03 15° E 21:27:13 10° SE visible
30 Sep 7.3 22:02:56 10° NNE 22:06:28 58° E 22:09:55 10° S visible
01 Oct 9.2 21:37:24 10° NE 21:40:21 24° E 21:43:16 10° SSE visible
02 Oct 10.2 21:13:11 10° ENE 21:14:09 11° E 21:15:08 10° ESE visible
04 Oct 8.1 21:52:15 10° NNE 21:55:37 39° E 21:58:53 10° S visible
